User: anonymous   Login
Location: Dayton
(39.7590°N, 84.1920°W)
Time: 21:44:16
(UTC-05:00)
Language:

Cosmos 1939 Rocket - Orbit

View from above orbital plane
View from above orbital plane
View from above satellite
View from above satellite

Ground track
Ground track

The orbit data is extracted from the following two-line orbital elements,

1 19046U 88032B   14330.80244996  .00002395  00000-0  19418-3 0   574
2 19046 097.6242 022.3602 0037626 266.2755 093.4165 15.00094646432578
Epoch (UTC): 26 November 2014 19:15:31
Eccentricity: 0.0037626
inclination: 97.6242°
perigee height: 540 km
apogee height: 593 km
right ascension of ascending node: 22.3602°
argument of perigee: 266.2755°
revolutions per day: 15.00094646
mean anomaly at epoch: 93.4165°
orbit number at epoch: 43257

The dashed part of the orbit path shows where the satellite is in the earth's shadow,  

DLR